Regional Weather Roundup
Issued by NWS

Home | Current Version | Previous Version | Text Only | Print | Product List | Glossary On
Versions: 1 2 3 4 5 6 7 8 9 10 11 12 13 14 15 16 17 18 19 20 21 22 23 24 25 26 27 28 29 30 31 32 33 34 35 36 37 38 39 40 41 42 43 44 45 46 47 48 49 50
000
ASUS44 KJAN 050910
RWRMS

MISSISSIPPI HOURLY WEATHER ROUNDUP
NATIONAL WEATHER SERVICE JACKSON MS
400 AM CDT THU MAY 05 2016

NOTE: "FAIR: INDICATES FEW OR NO CLOUDS BELOW 12,000 FEET WITH NO
SIGNIFICANT WEATHER AND/OR OBSTRUCTIONS TO VISIBILITY.

MSZ001>002-007>008-010>013-018>021-025>028-034>036-051000-
NORTHWEST MISSISSIPPI

CITY           SKY/WX    TMP DP  RH WIND       PRES   REMARKS
BATESVILLE     FAIR      48  46  93 CALM      29.91S
CLEVELAND      FAIR      55  52  90 N8        29.91S
GREENWOOD      CLEAR     51  47  86 CALM      29.90R
GREENVILLE     CLEAR     57  46  66 N6        29.91R
OLIVE BRANCH   CLEAR     50  46  87 CALM      29.91S
OXFORD         FAIR      46  45  93 CALM      29.92S
TUNICA         SUNNY     50  45  81 N3        29.92S
WINONA         FAIR      52  48  86 CALM      29.90R
$$

MSZ003>006-009-014>017-022>024-029>033-037>039-051000-
NORTHEAST MISSISSIPPI

CITY           SKY/WX    TMP DP  RH WIND       PRES   REMARKS
COLUMBUS AFB   CLEAR     52  49  90 NW5       29.87R
CORINTH        FAIR      46  45  93 CALM      29.87S
GOLDN TRIANGLE   N/A    N/A N/A N/A MISG        N/A
STARKVILLE     FAIR      50  50 100 CALM      29.88R FOG
TUPELO         CLEAR     50  44  80 CALM      29.88S
$$

MSZ040-058-051000-
CENTRAL MISSISSIPPI

CITY           SKY/WX    TMP DP  RH WIND       PRES   REMARKS
JACKSON INTL   CLEAR     57  50  77 N7        29.86R
JACKSON HAWKNS CLEAR     58  50  75 N3        29.88R
MADISON        FAIR      57  50  77 CALM      29.87S
MERIDIAN KEY   CLEAR     54  52  93 CALM      29.86R
MERIDIAN NAS   CLEAR     56  52  86 N6        29.86R
VICKSBURG TVR  CLEAR     62  53  72 N9        29.90R
VICKSBURG VKS  SUNNY     55  54  94 CALM      29.90R
$$

MSZ059>079-051000-
SOUTH MISSISSIPPI

CITY           SKY/WX    TMP DP  RH WIND       PRES   REMARKS
BROOKHAVEN     FAIR     N/A N/A N/A NW3       29.88R
COLUMBIA       FAIR      50  50 100 CALM      29.89S
HATTIESBURG    PTCLDY    59  51  75 NW3       29.85S
MCCOMB         CLEAR     58  53  84 N6        29.87R
NATCHEZ        CLEAR     57  52  82 N3        29.89S
PINE BELT      CLEAR     57  48  72 W5        29.85S
$$

MSZ080>082-051000-
COASTAL MISSISSIPPI

CITY           SKY/WX    TMP DP  RH WIND       PRES   REMARKS
BILOXI         PTCLDY    64  54  70 NW6       29.83R
PASCAGOULA     PTCLDY    61  52  72 NW3       29.83R
GULFPORT       PTCLDY    62  52  69 NW8       29.83R
$$




USA.gov is the U.S. government's official web portal to all federal, state and local government web resources and services.